Wind_Speed
17 17 17 17 17 16 15 14 13 13 15 16 17 17 14 12 9 6 7 9 7 7 10 17 24 27 28 30 32 34 38 41 44 47 49 51 50 51 51 49 47 46 46 48 48 48 48 48 47 47 45 46 46 45 46 46 45 45 44 44 43 43 42 42 42 41 39 38 36 34 34 36 41 44 46 47 48 49 48 46 45 42 40 38 38
16 16 17 17 18 18 18 17 16 15 14 15 15 15 13 10 7 5 4 4 6 11 13 15 21 25 26 29 32 34 37 41 45 46 49 50 47 47 47 46 44 43 44 45 44 44 45 45 46 46 46 46 46 46 46 45 45 44 44 44 45 45 44 44 43 43 42 41 40 38 35 35 38 41 43 44 46 49 50 49 47 45 43 42 41
16 16 16 17 17 18 19 19 19 18 16 15 15 14 13 10 7 6 6 6 5 10 15 18 21 25 27 29 33 35 38 42 44 45 45 44 42 42 44 44 43 43 42 42 41 42 42 43 44 45 46 47 48 46 46 45 44 44 43 44 45 45 45 45 44 44 43 41 40 40 38 36 36 37 39 41 45 49 51 50 49 47 46 45 44
16 16 16 16 17 17 18 19 19 19 18 17 16 15 14 12 9 7 7 9 9 10 13 17 21 26 29 31 33 36 39 41 42 42 42 40 39 39 41 42 42 41 39 39 39 39 40 41 42 44 45 47 47 46 45 45 45 44 44 44 45 45 46 46 45 44 43 42 42 41 40 39 38 37 37 40 43 48 50 50 50 49 48 47 46
18 18 18 17 17 17 17 17 17 18 18 18 17 17 16 14 11 9 8 9 11 13 14 15 18 22 27 31 34 36 39 40 41 42 43 42 41 39 38 38 38 37 37 36 36 37 37 38 39 41 44 45 45 45 45 45 45 44 44 44 44 45 46 47 46 45 44 45 44 43 42 42 41 40 39 38 40 45 49 50 51 50 50 49 48
19 19 19 19 19 19 18 16 15 15 16 17 17 18 17 16 14 11 10 10 11 13 15 16 18 19 22 26 31 34 36 37 40 41 42 41 40 39 38 37 35 34 35 34 34 35 34 34 35 38 41 42 42 42 42 42 43 44 45 45 44 44 46 47 47 46 46 47 47 46 45 45 44 42 41 39 39 42 46 49 50 51 51 50 49
20 20 21 21 21 20 19 17 15 15 15 16 17 18 18 18 17 15 13 12 12 13 14 16 17 19 20 23 26 28 29 31 34 36 37 37 38 38 38 37 36 34 34 33 33 33 33 33 34 36 38 38 38 38 37 36 37 39 41 41 42 43 45 46 47 48 48 48 49 49 48 47 46 44 42 40 38 40 43 46 50 51 52 52 51
21 21 21 22 22 21 20 18 17 16 15 16 17 18 18 18 18 18 17 15 14 14 15 16 17 19 21 22 24 25 25 26 27 29 31 32 33 34 35 35 35 35 34 33 33 32 32 32 33 34 35 35 35 35 35 34 33 33 33 34 37 39 41 44 47 48 49 49 50 50 49 49 48 46 44 41 40 42 44 46 49 50 51 52 53
22 22 22 22 21 21 20 19 18 18 17 17 17 18 18 19 19 19 20 19 17 16 16 17 18 20 21 23 24 25 25 26 26 26 26 27 27 28 29 30 31 31 31 30 30 30 30 30 31 31 32 32 33 34 35 35 36 35 34 34 36 38 40 44 46 48 49 49 49 49 50 50 49 49 48 46 46 46 45 46 47 48 50 52 54
21 22 23 22 21 21 21 20 20 20 19 19 18 18 18 19 20 20 21 21 21 20 19 19 20 20 22 23 25 26 27 27 27 26 26 26 26 26 26 27 27 27 28 28 29 30 31 31 31 31 32 33 34 35 36 38 39 39 38 38 39 40 42 44 46 47 47 47 48 49 49 50 51 50 50 49 47 46 45 45 46 48 51 53 54
21 21 22 21 21 21 22 22 21 21 21 20 19 19 19 20 20 21 22 22 23 23 22 22 22 22 23 24 25 27 28 28 29 28 28 28 27 27 27 27 27 28 29 29 30 31 32 33 33 34 34 35 36 36 37 38 39 39 39 40 40 41 42 43 44 45 46 46 47 47 49 50 49 49 49 48 46 46 46 46 46 48 51 53 54
22 21 20 20 22 22 22 22 22 22 22 21 21 20 21 21 22 22 22 23 24 25 25 24 24 24 24 25 26 27 28 28 29 30 30 30 30 29 29 29 29 30 30 31 32 32 33 33 34 35 35 36 36 36 36 37 37 37 38 39 39 40 41 42 43 43 44 44 45 47 48 47 47 48 47 45 44 44 46 46 46 48 50 53 54
25 23 21 20 21 22 23 23 23 23 23 22 22 22 22 23 23 23 23 23 25 26 26 25 25 26 26 26 27 27 28 28 30 30 31 31 31 31 32 32 32 32 33 33 33 33 34 34 34 34 35 35 34 34 34 34 35 35 36 37 38 39 40 41 42 42 43 43 45 46 45 44 45 45 42 41 42 44 45 46 46 48 50 51 53
29 26 24 22 20 21 23 24 24 23 23 23 24 24 24 24 24 24 23 24 25 27 27 27 26 26 26 27 27 27 27 28 29 30 31 32 33 33 34 34 35 35 35 35 35 35 35 35 35 35 35 35 35 34 34 34 34 34 34 35 37 38 39 40 40 41 43 44 45 45 43 42 43 42 39 39 40 41 41 42 43 45 47 49 51
35 30 26 24 22 21 23 25 25 24 24 25 25 25 25 25 25 25 25 25 25 25 26 27 27 27 27 27 27 27 27 27 28 28 30 31 32 33 33 34 35 36 36 36 36 36 36 36 36 36 36 36 36 35 35 35 35 35 35 35 35 35 36 37 37 39 41 42 43 43 42 42 41 41 39 38 37 38 38 39 39 40 43 47 50
40 35 30 27 25 23 22 24 27 26 25 25 25 25 25 25 25 25 25 25 25 25 26 27 27 28 28 27 27 28 27 27 28 28 29 29 30 30 31 32 32 33 34 34 35 35 36 36 37 37 38 38 38 38 38 37 36 36 35 35 34 34 34 34 33 33 35 37 37 38 39 40 39 40 40 38 37 38 38 38 39 41 43 46 49
46 40 35 31 27 24 24 25 27 28 27 26 25 25 24 25 25 26 26 26 26 26 26 26 27 27 28 28 28 28 27 27 27 28 28 29 29 30 30 31 31 31 31 31 32 32 32 32 33 34 35 35 36 37 37 38 39 39 38 37 35 35 35 33 32 32 33 33 33 34 37 38 38 39 40 39 39 39 39 40 41 42 44 46 48
50 45 40 35 31 26 24 25 28 30 29 27 26 24 24 25 25 26 26 26 26 26 26 26 26 27 27 28 28 28 27 27 26 27 27 27 28 28 29 29 29 29 29 29 29 29 29 29 30 30 30 30 30 31 31 33 36 38 40 42 41 40 38 37 36 35 33 32 32 32 35 36 37 39 40 41 41 41 41 40 40 40 43 45 47
51 50 45 39 33 29 26 26 28 31 31 29 26 24 24 25 25 26 26 27 27 26 26 26 26 26 26 27 28 27 27 27 27 27 27 27 27 28 28 28 28 27 27 26 26 26 26 25 25 25 25 25 25 26 26 27 30 33 36 38 41 42 42 40 38 36 34 33 33 34 35 36 37 39 40 41 42 42 41 40 39 41 42 42 43
47 50 49 42 36 31 28 28 30 32 32 29 26 24 24 24 25 26 26 27 27 27 27 27 27 27 26 27 27 27 27 26 26 27 27 27 27 27 27 26 26 25 25 24 24 24 23 23 23 23 22 22 24 25 24 24 26 29 30 32 34 36 37 37 36 35 35 34 33 33 34 34 35 37 40 42 42 41 41 41 41 42 41 41 41
42 47 50 46 38 33 29 30 32 32 32 30 27 26 25 24 25 25 26 27 27 27 27 27 27 27 27 27 27 27 27 26 26 26 26 26 26 25 25 25 24 24 24 24 25 25 24 24 23 22 21 22 24 24 23 20 22 25 28 29 29 30 30 31 31 31 31 31 30 31 32 33 35 37 39 41 42 42 42 42 41 41 42 42 41
39 44 51 48 40 33 30 32 33 33 32 30 28 28 27 25 24 25 25 26 26 26 26 26 27 27 27 27 27 27 27 27 27 27 27 26 25 25 24 24 23 24 25 26 27 27 26 25 23 21 21 22 20 18 18 17 18 22 25 26 26 26 25 26 26 26 26 27 28 29 31 32 35 37 39 41 42 42 43 42 42 41 41 40 40
38 43 51 48 40 33 31 33 35 34 32 31 30 29 28 26 25 24 25 25 26 26 26 26 26 26 26 26 26 27 27 27 27 27 27 26 25 24 24 24 24 25 26 28 28 27 27 25 22 21 21 19 15 15 16 16 17 20 22 24 25 24 24 24 24 24 24 26 27 28 30 32 34 36 38 39 40 41 41 41 40 40 39 38 39
36 42 48 46 38 33 33 35 36 35 34 33 31 31 29 27 25 24 24 24 24 25 25 25 25 25 25 25 26 26 26 27 27 26 26 25 24 24 25 26 26 26 27 28 29 29 27 24 21 20 20 16 14 15 16 17 18 19 21 22 23 23 22 22 23 23 24 25 27 28 28 29 30 31 33 35 36 37 38 39 39 39 39 38 38
35 40 45 43 36 34 36 38 38 36 35 34 33 32 30 28 26 24 23 23 23 23 24 24 24 25 25 26 27 27 27 27 27 27 26 25 25 26 27 27 28 28 29 29 29 28 25 22 20 19 17 15 15 16 17 17 18 19 20 22 23 24 23 22 22 23 24 24 25 25 25 24 25 27 29 31 34 36 37 38 39 39 40 39 39
35 39 43 42 37 37 40 41 39 38 37 35 34 33 30 28 26 25 23 22 22 22 23 23 23 24 25 26 27 27 28 28 28 28 28 27 27 28 29 29 29 29 28 28 27 26 24 22 21 19 16 15 16 16 17 18 19 20 20 21 24 25 25 23 23 23 23 23 24 24 24 24 25 28 29 30 33 35 36 38 39 39 40 40 40
34 37 40 41 40 41 42 42 41 40 38 37 35 33 30 28 27 26 24 23 23 23 23 23 22 23 24 24 26 27 28 29 30 30 29 28 29 30 30 30 29 28 28 29 28 26 24 23 22 19 17 17 17 17 18 20 21 21 21 21 23 24 24 23 23 23 23 23 22 22 24 26 27 28 29 30 31 33 35 37 39 39 39 40 41
33 34 36 38 40 42 43 42 42 41 39 37 35 33 31 29 28 27 25 24 24 23 23 23 22 22 22 23 24 26 27 29 30 30 29 29 30 31 30 30 30 30 31 31 29 27 25 24 22 21 19 19 19 20 21 21 21 22 22 21 22 23 23 23 23 23 24 24 22 23 26 28 28 29 30 30 31 32 33 34 37 38 39 41 43
32 33 35 36 39 42 43 43 42 41 39 37 34 32 30 29 28 27 25 24 23 23 23 23 22 21 21 22 23 24 25 27 28 28 27 28 29 29 29 30 31 32 32 30 28 26 25 24 23 23 22 21 21 22 22 22 21 22 22 22 23 23 23 24 25 26 28 28 28 29 31 30 29 28 29 29 31 33 32 33 35 37 39 42 44
32 34 35 36 39 40 42 43 42 40 38 36 33 31 29 27 26 25 24 23 22 22 23 23 23 23 22 22 22 22 22 23 23 23 25 27 28 29 30 31 31 30 29 26 24 24 24 24 24 24 23 23 23 23 24 24 24 24 24 24 24 24 24 26 28 29 30 31 31 32 32 31 30 30 28 28 31 32 32 33 35 36 38 41 44
32 34 34 35 36 38 40 41 40 39 37 34 32 30 28 27 27 26 24 24 23 24 25 25 25 25 24 23 22 21 21 22 22 22 23 26 28 29 30 30 29 27 25 23 23 24 25 25 25 25 24 25 25 26 25 26 26 25 25 26 26 26 27 28 29 30 31 32 32 32 32 31 31 30 28 27 28 31 32 34 35 36 38 41 43
32 33 32 33 34 36 38 39 39 37 36 34 32 30 28 28 28 27 26 26 25 26 26 26 26 26 24 23 21 20 20 21 21 21 23 24 26 27 28 28 26 24 23 23 24 26 26 26 27 26 26 26 27 28 27 27 26 25 25 25 26 26 27 28 29 29 30 31 31 31 31 32 31 29 27 27 28 30 32 34 36 36 37 40 43
29 30 30 31 33 35 37 38 38 36 35 33 31 30 29 29 28 27 27 26 25 26 26 27 27 27 25 24 22 21 20 20 19 20 21 23 24 26 26 26 25 24 24 25 27 28 28 28 28 28 27 28 28 28 28 27 26 25 24 24 25 26 27 28 28 28 29 30 30 30 31 32 30 27 26 27 29 30 32 34 35 37 38 40 42
27 28 29 30 32 35 36 37 36 35 33 31 30 30 29 28 27 27 27 26 26 27 27 27 27 26 25 24 23 22 21 20 19 20 21 23 25 25 25 25 26 26 26 28 29 30 31 30 30 29 29 28 29 29 28 28 27 26 24 25 27 28 27 27 27 27 28 29 29 30 31 31 30 27 26 28 30 32 33 34 36 37 38 40 42
25 26 27 29 31 33 34 34 33 32 31 30 29 28 27 26 26 26 26 26 27 27 27 27 26 25 25 25 24 23 22 21 20 19 20 23 24 23 24 26 28 28 29 30 31 33 33 33 32 31 30 30 29 29 28 28 27 27 27 29 29 28 27 26 25 26 28 28 29 29 30 31 30 27 27 28 31 33 34 36 37 37 37 39 41
23 24 26 27 28 29 30 30 30 29 28 28 27 26 25 25 25 26 26 27 27 26 26 26 25 25 25 25 24 24 23 22 20 19 19 21 22 22 24 28 30 31 31 32 33 34 35 34 34 33 32 31 30 29 29 28 29 30 31 31 28 27 27 25 24 24 27 28 29 29 30 31 30 28 27 29 30 32 34 34 35 35 36 39 41
22 23 25 26 26 27 27 27 27 26 26 25 25 25 25 25 26 27 27 28 27 27 26 26 25 25 26 26 26 25 24 22 20 18 17 18 21 24 27 30 31 32 33 34 34 35 36 36 35 34 34 33 32 31 30 30 31 32 32 30 28 27 26 24 22 23 26 28 28 29 30 32 31 29 28 29 30 32 34 35 35 35 36 39 42
20 21 23 24 25 26 26 26 25 25 25 25 25 26 26 27 28 29 29 28 28 27 27 26 26 27 28 27 27 26 24 23 22 21 19 19 21 25 29 30 30 32 33 34 35 35 35 36 35 35 35 35 33 32 32 32 31 31 30 28 26 25 24 23 23 24 26 27 27 27 29 31 32 30 28 28 29 30 32 33 35 35 36 39 44
23 23 23 24 24 24 24 25 26 26 26 27 28 28 29 30 30 30 29 29 28 28 27 27 27 27 27 27 26 25 25 25 25 25 25 24 25 26 27 27 29 31 33 34 34 35 35 36 36 35 35 35 34 33 33 33 31 29 26 25 24 24 24 24 25 25 26 27 27 27 29 31 32 31 29 28 29 30 31 32 33 34 34 37 42
27 27 27 27 25 24 25 25 26 27 28 29 29 30 30 30 30 30 30 30 29 28 27 27 27 26 26 26 25 24 25 27 27 27 27 28 28 28 27 26 27 31 34 35 35 34 35 36 36 35 35 34 33 33 34 33 30 26 24 24 23 23 24 24 25 25 26 27 27 27 28 29 30 31 31 30 28 29 30 32 32 32 32 34 38
28 28 29 28 26 26 26 26 26 27 28 28 29 29 30 30 30 30 30 29 28 27 26 26 25 25 24 24 23 23 24 26 26 27 28 28 29 30 30 28 28 30 33 34 34 35 35 35 35 34 33 32 30 30 31 30 26 24 23 22 22 23 24 25 25 25 26 27 27 27 27 27 28 30 32 31 28 28 29 30 31 31 32 34 38
30 30 30 29 28 28 28 27 27 27 27 27 27 27 27 28 28 28 28 27 26 25 25 24 23 22 21 21 21 22 23 24 25 26 27 27 28 29 30 30 30 30 31 32 32 34 35 36 35 34 32 30 29 27 26 25 24 23 22 21 21 22 24 25 25 25 25 26 26 26 26 26 27 28 30 31 31 31 30 29 29 29 31 33 37
31 31 31 31 30 30 29 27 27 27 26 26 26 26 25 25 25 25 25 25 24 23 23 22 21 20 20 20 20 21 22 23 24 25 26 26 27 27 27 28 28 28 28 28 29 30 31 32 33 33 32 31 29 26 24 24 25 24 23 22 22 22 23 24 25 26 26 26 25 25 25 25 26 27 29 31 33 34 33 31 30 30 30 31 34
30 30 31 31 30 29 28 27 26 25 25 25 25 25 24 24 24 24 24 23 22 21 21 20 20 19 19 19 20 21 21 21 22 23 24 24 25 25 25 24 24 23 23 24 25 26 26 27 28 30 30 29 28 27 25 25 26 25 24 23 23 23 23 23 24 25 26 26 26 25 24 25 25 26 28 30 33 35 36 35 33 32 31 31 33
28 29 29 29 29 28 27 26 25 24 24 24 23 23 23 22 22 22 21 21 20 19 19 18 17 17 17 18 19 20 21 21 20 21 21 21 22 22 21 21 20 19 18 19 19 20 22 23 24 26 28 28 27 27 27 27 27 27 26 25 24 24 24 23 23 25 26 27 26 25 24 24 25 26 27 29 31 34 36 36 36 35 33 33 35
27 28 28 28 28 27 26 25 25 24 23 22 21 20 20 19 18 18 18 17 17 16 15 14 13 12 12 13 14 15 16 17 18 18 18 19 19 19 19 18 18 17 16 15 14 14 15 17 19 21 24 26 27 28 29 29 28 29 29 28 27 25 23 22 23 25 27 27 26 25 25 26 27 26 26 26 28 31 34 36 37 38 37 36 36
25 26 26 25 25 25 24 23 22 21 20 19 18 17 17 16 16 15 15 14 14 13 12 11 10 10 9 10 10 10 10 10 11 12 14 15 17 17 17 17 16 15 15 14 13 13 13 14 15 16 18 20 22 25 27 28 28 28 28 28 27 26 23 21 22 24 25 26 25 25 25 26 27 27 27 26 26 28 31 34 36 38 38 38 38
25 25 25 24 24 23 22 21 21 19 19 18 16 15 15 14 14 14 13 13 13 12 11 10 10 9 9 9 9 8 8 8 8 9 10 11 12 13 14 15 15 15 14 14 13 13 13 13 13 14 15 16 17 19 21 23 24 25 25 25 25 24 23 21 21 22 23 24 25 25 25 25 26 27 29 29 28 28 29 31 34 36 38 38 39
25 26 26 26 26 25 24 23 22 21 20 19 18 17 16 15 14 14 13 12 11 10 10 9 9 9 9 9 9 10 10 9 10 10 10 10 10 9 10 11 12 12 13 13 13 13 12 12 12 13 14 14 15 16 17 19 20 21 22 22 22 21 21 21 21 21 21 21 22 24 25 26 26 27 28 30 30 29 29 30 32 34 36 37 39
22 23 23 24 25 25 25 24 24 23 22 22 21 20 19 18 17 16 15 14 13 12 11 9 8 7 7 7 7 8 9 9 10 10 9 9 9 9 8 9 9 10 11 12 12 12 12 12 12 12 13 14 14 15 16 17 18 19 19 19 19 19 19 20 20 20 19 19 20 22 24 26 27 27 27 28 30 31 31 31 32 34 36 37 38
19 20 20 21 21 22 22 23 23 23 23 22 22 21 20 19 17 16 16 15 14 14 13 12 11 10 9 9 8 7 7 7 7 7 7 7 8 8 9 9 9 9 10 10 11 11 12 12 12 12 12 13 14 15 15 16 17 17 17 17 17 17 18 19 20 20 19 18 19 20 22 24 26 27 28 28 29 31 32 32 32 33 35 36 37
Wind_Direction
224 228 233 235 239 245 247 251 252 253 258 260 264 267 264 275 284 283 311 310 273 238 221 211 212 217 218 218 220 220 218 216 213 213 212 209 209 211 214 215 217 217 215 215 215 216 218 219 222 223 224 226 228 228 228 229 230 232 233 233 233 235 236 237 238 240 244 247 249 252 251 248 245 241 239 239 238 236 235 234 233 231 231 230 229
227 229 233 235 237 241 244 248 251 251 255 258 263 269 265 264 271 256 246 283 256 228 223 216 212 215 217 218 218 217 217 215 212 212 212 210 209 213 217 219 219 219 218 219 220 221 221 222 224 225 226 228 229 230 230 231 233 235 236 237 238 239 238 238 239 241 244 248 251 251 249 246 243 242 242 243 243 241 237 236 234 232 231 231 230
229 229 233 234 235 237 240 244 248 250 252 255 259 266 267 258 252 241 213 205 214 213 217 219 216 215 215 216 216 216 216 214 212 212 213 212 212 216 219 221 222 222 222 223 225 227 227 227 227 228 229 229 230 231 233 234 236 238 239 240 241 241 240 239 240 242 245 249 252 252 251 247 244 243 243 243 244 242 238 237 236 235 233 232 232
231 232 232 234 235 235 237 240 244 248 250 252 254 257 264 261 247 235 216 202 197 194 199 209 213 214 215 215 215 215 214 213 212 213 214 213 214 216 219 222 224 225 226 228 230 231 232 232 232 232 233 232 232 233 235 237 238 240 241 242 242 242 242 241 241 243 246 249 252 252 251 250 247 245 243 242 241 239 237 236 236 235 234 232 231
232 235 235 235 236 236 236 237 240 245 248 250 252 252 256 260 252 239 226 211 203 195 190 194 200 206 212 216 216 215 214 214 214 214 214 213 214 217 220 222 225 228 230 232 234 236 237 237 237 237 237 236 236 236 238 239 240 241 241 242 244 245 245 244 244 245 246 249 251 251 251 251 249 247 246 243 240 236 233 233 234 234 233 231 230
231 234 237 238 239 238 237 237 237 241 245 247 249 249 250 253 254 246 233 221 214 206 199 195 194 197 203 210 215 216 216 217 218 218 218 218 218 220 222 224 226 230 233 235 237 239 241 242 243 242 242 242 242 242 242 242 243 244 244 244 245 246 247 248 248 247 247 248 249 250 251 252 251 250 248 246 242 237 233 232 233 233 231 230 228
229 232 237 239 241 240 238 238 238 236 240 244 246 246 245 246 249 248 241 230 221 217 213 206 200 199 199 202 207 212 215 218 221 222 223 224 224 225 226 227 229 233 236 239 241 243 245 246 247 247 247 248 248 247 246 246 248 250 251 251 250 249 250 251 251 249 246 245 246 247 249 250 250 249 248 245 241 238 236 234 232 230 229 228 228
229 231 235 238 241 242 240 239 238 235 234 237 241 244 244 243 244 245 244 238 228 222 220 216 211 206 204 203 204 207 210 214 217 221 224 227 228 230 231 232 234 237 239 241 244 246 248 250 250 250 250 250 250 249 248 248 250 255 258 259 256 254 254 254 253 251 248 245 245 245 246 247 247 247 246 242 239 240 240 237 233 232 231 229 227
232 233 235 236 240 243 243 241 239 236 233 233 237 241 243 243 242 242 243 242 236 228 221 219 217 214 211 208 207 208 210 212 214 216 219 222 225 229 232 234 236 238 240 242 244 246 247 248 250 250 251 251 252 251 251 250 250 254 259 260 258 257 256 255 253 251 248 246 245 244 244 244 245 246 245 246 248 248 245 238 234 234 232 228 226
235 239 240 240 239 239 243 243 241 239 236 234 235 238 240 242 243 242 241 240 239 235 229 224 220 219 217 215 213 212 213 214 215 217 218 219 220 223 226 230 232 234 237 239 241 243 246 247 249 250 252 252 252 252 253 252 252 254 257 260 260 260 258 256 254 252 250 248 247 247 246 245 247 249 250 252 252 251 248 244 237 232 228 226 225
233 239 244 246 242 237 238 241 242 242 240 238 237 237 238 240 241 242 241 240 238 237 234 231 226 222 221 219 219 218 217 217 218 218 219 220 221 222 224 227 230 233 235 238 240 243 245 247 248 249 250 250 251 252 253 254 255 256 258 260 261 261 261 259 257 256 254 252 252 251 250 249 252 253 253 253 251 251 251 247 239 232 228 227 226
227 231 238 245 246 241 236 236 240 243 244 243 241 240 240 240 240 240 240 239 239 237 235 233 230 227 223 221 220 220 220 220 220 221 221 222 223 224 225 227 229 232 234 237 239 241 242 244 245 246 246 247 248 250 251 253 255 257 258 260 261 261 261 261 261 260 259 257 255 254 254 255 255 254 253 255 256 255 251 245 240 237 236 233 232
225 226 229 236 243 245 241 236 236 240 244 246 245 243 243 242 242 241 240 239 238 237 236 234 231 229 227 224 222 221 220 220 220 221 222 223 224 224 225 226 228 229 232 233 235 236 237 239 240 241 243 244 246 247 249 251 253 255 257 258 258 259 259 260 262 263 263 263 260 259 261 261 259 259 261 262 260 255 249 246 244 241 240 239 237
228 226 225 228 235 242 243 240 237 236 240 245 247 246 246 245 245 244 241 238 236 235 235 235 234 233 230 228 226 224 223 222 221 221 222 223 224 225 226 227 228 229 230 231 233 234 236 237 239 240 242 243 244 245 246 247 249 250 252 253 255 256 256 256 257 259 260 261 261 262 265 265 265 267 268 265 260 257 256 255 253 248 245 242 237
230 228 225 225 228 236 242 244 241 236 236 241 246 248 248 248 248 246 243 240 238 235 234 233 234 234 233 232 230 228 227 226 225 225 224 224 225 226 228 229 229 231 232 233 235 237 238 240 242 243 245 246 247 248 248 248 247 247 247 248 250 252 254 255 256 257 259 260 262 265 267 268 269 269 268 266 264 263 262 261 258 253 246 240 234
231 229 227 224 225 231 239 243 243 238 235 237 242 246 248 249 249 248 246 242 238 234 232 231 231 232 233 233 232 231 230 229 228 228 228 228 229 229 230 231 232 234 235 237 239 241 242 245 246 247 249 249 250 250 250 250 250 249 248 248 248 249 251 252 254 256 259 262 263 266 267 268 268 267 266 265 263 260 256 253 250 246 241 236 232
231 229 228 225 224 228 236 241 243 241 237 235 238 241 245 248 248 247 246 244 240 237 234 232 230 230 231 232 233 233 231 230 230 231 231 231 231 231 232 233 234 236 238 240 242 244 246 248 249 251 252 252 253 253 253 253 253 252 252 253 252 252 252 252 252 253 254 256 258 260 262 263 263 263 263 261 259 256 253 249 246 244 240 236 234
232 228 227 227 225 227 235 240 242 242 239 237 236 238 240 243 244 244 244 244 243 241 238 235 233 231 231 232 233 233 232 231 232 233 233 233 233 234 235 236 236 238 239 240 242 244 245 247 248 250 251 253 254 254 254 254 254 254 252 252 252 252 252 253 253 252 250 249 250 252 254 256 257 257 258 257 255 255 254 253 251 248 243 240 242
236 229 226 227 227 226 232 239 241 241 239 238 237 236 236 237 239 241 241 241 241 241 239 237 236 235 234 234 234 234 233 232 232 233 234 233 233 234 236 237 239 240 240 241 243 244 247 249 252 256 259 261 261 260 260 257 254 252 251 250 250 250 249 250 251 251 250 249 248 248 249 251 252 252 254 254 253 254 256 257 255 251 247 245 244
241 233 227 226 226 225 229 235 238 238 237 237 238 236 233 232 234 236 238 239 239 239 238 238 238 237 237 237 237 237 237 235 234 234 235 234 234 235 237 239 242 244 246 249 251 254 256 258 262 265 267 269 271 272 272 263 252 248 247 249 250 251 251 252 253 254 254 253 252 252 252 252 252 252 253 252 251 252 253 253 252 252 251 248 246
243 235 227 224 224 224 228 233 235 234 233 234 236 235 233 231 230 232 235 237 238 237 236 237 237 237 238 238 239 239 240 239 238 237 237 237 237 238 241 244 247 250 253 257 260 262 262 261 262 263 265 270 274 273 270 262 250 246 244 245 250 253 253 253 254 255 256 255 254 254 253 252 252 253 253 253 253 253 252 251 251 251 251 249 248
241 233 226 223 222 222 227 231 231 230 230 231 232 232 231 230 229 230 232 235 236 237 236 236 236 236 236 236 238 238 239 239 239 238 239 239 239 241 244 247 249 251 254 258 261 263 263 262 261 262 267 273 272 264 256 252 249 248 245 244 247 251 252 253 252 253 254 254 254 254 254 253 253 252 253 253 253 253 252 252 251 250 251 250 250
239 232 224 220 220 221 225 228 228 227 227 228 229 230 230 229 227 228 230 233 235 236 237 238 238 239 239 238 238 239 239 239 239 239 240 240 241 244 247 248 248 250 254 258 261 262 261 261 262 266 272 271 260 246 245 246 248 247 244 242 244 246 247 249 249 249 252 254 255 255 255 255 254 254 255 256 256 256 255 254 253 253 252 249 248
236 230 222 218 218 221 223 225 226 225 224 225 226 227 229 228 227 227 229 231 234 236 237 239 240 242 243 244 244 244 244 244 244 243 243 243 243 245 246 247 249 251 254 258 259 259 259 259 261 268 270 261 244 239 243 245 247 246 241 239 241 242 242 243 245 248 251 255 257 258 259 261 261 261 262 263 263 261 259 255 253 251 248 245 244
230 226 220 217 219 221 222 224 224 222 221 223 223 224 226 227 227 228 227 229 231 234 236 237 239 241 243 245 246 247 247 248 248 247 245 245 244 243 243 245 248 250 253 255 255 255 256 256 258 263 262 247 235 238 244 245 248 249 244 238 238 238 238 240 242 245 249 252 256 259 262 264 265 265 266 266 264 260 256 251 248 246 242 240 239
227 223 220 219 221 221 221 222 221 219 218 220 219 220 223 225 227 228 228 229 232 235 237 239 240 241 243 245 247 249 249 249 250 249 246 243 242 241 241 243 246 248 250 251 251 251 250 251 255 258 252 239 234 238 244 247 249 249 244 236 231 231 233 236 240 245 250 255 260 264 266 264 263 262 263 262 259 257 254 251 248 245 242 239 236
226 223 221 221 221 220 219 220 219 217 216 216 215 216 218 221 224 226 228 229 232 234 237 239 241 243 245 248 250 252 252 251 251 250 246 241 239 239 240 242 244 245 245 246 247 248 249 251 254 254 247 237 233 236 241 244 244 245 243 235 231 232 235 239 244 249 253 258 264 266 265 263 263 262 261 259 257 256 255 253 250 246 242 239 235
225 222 220 218 217 217 218 219 217 216 215 214 213 214 215 217 220 223 225 228 231 234 236 238 239 241 244 246 249 251 252 252 251 250 245 241 239 239 238 239 240 240 241 243 246 249 251 252 252 249 242 236 233 235 240 242 242 243 244 241 239 240 241 242 245 249 252 255 257 257 257 259 260 261 260 259 257 255 253 252 250 245 242 238 233
222 220 217 215 215 216 217 217 215 215 214 213 212 213 216 218 220 222 223 226 229 233 234 234 235 237 239 241 244 246 249 250 250 249 245 240 238 237 236 237 239 240 241 244 248 249 250 250 247 244 239 237 237 239 241 242 242 243 244 245 246 245 244 244 247 250 253 253 252 252 254 255 255 255 255 255 255 253 252 250 248 244 241 237 233
220 218 216 214 214 215 216 215 213 212 212 211 211 213 216 218 220 221 222 224 226 229 230 229 228 230 232 234 237 241 244 246 246 244 241 238 234 234 235 237 239 241 243 244 245 245 244 244 244 242 240 239 240 243 244 244 245 247 249 250 252 252 252 253 256 257 257 255 253 253 252 250 249 249 249 249 251 252 251 249 247 244 242 237 233
215 214 213 212 212 213 213 211 209 209 209 210 213 216 218 219 220 220 220 221 222 223 224 224 225 226 228 230 233 237 240 242 239 233 230 230 230 231 233 236 238 240 241 239 238 237 236 237 240 241 241 240 242 245 246 246 247 250 251 252 253 255 257 260 261 259 255 252 252 252 249 245 244 244 244 245 249 251 251 247 243 241 240 237 233
209 208 208 208 208 209 208 207 207 207 208 210 214 218 221 222 222 221 221 222 223 223 223 223 224 225 227 229 232 236 240 243 240 231 224 224 227 229 231 235 236 236 234 234 235 235 235 236 238 240 240 240 242 245 246 246 248 249 251 252 254 255 256 257 256 253 250 249 248 247 244 241 240 240 241 242 245 247 247 245 242 239 237 234 231
203 204 204 204 203 203 203 204 205 207 210 214 219 221 224 225 225 224 225 225 226 226 225 224 225 226 226 228 231 235 239 243 244 238 228 226 228 229 230 231 231 229 228 230 233 235 235 237 238 239 239 240 241 243 245 246 246 246 248 251 253 253 252 252 251 250 250 249 248 245 242 239 237 236 237 240 244 245 244 244 241 238 234 231 228
197 198 199 198 197 199 201 203 206 210 214 219 223 225 226 227 227 228 228 227 227 228 227 226 227 228 228 228 230 234 237 240 243 241 234 232 233 232 229 229 228 227 227 230 233 235 236 237 236 236 236 237 239 242 244 245 244 242 242 245 248 249 250 250 250 250 250 249 247 244 241 238 236 234 234 236 239 241 241 241 239 236 233 229 228
190 193 195 196 197 199 202 205 209 214 218 221 224 225 226 227 228 229 229 229 230 230 231 231 231 232 233 233 233 235 237 239 240 240 237 234 233 229 226 227 228 227 226 228 231 234 237 238 237 235 234 235 237 240 241 243 243 241 240 243 246 249 250 250 250 251 251 248 245 243 240 237 236 234 234 236 237 238 238 237 237 236 234 230 228
187 191 195 198 200 203 207 210 214 217 219 221 221 222 223 225 227 228 229 229 231 232 233 234 235 236 237 237 236 237 237 238 238 239 238 233 227 223 223 226 227 225 225 228 231 233 236 237 237 235 233 233 236 238 240 242 243 244 244 245 246 248 249 249 250 253 253 250 246 243 241 238 237 236 235 237 239 241 240 239 238 237 235 231 227
192 194 196 200 203 206 210 213 215 217 218 218 218 219 220 221 222 224 226 228 230 231 232 232 233 234 235 235 235 235 235 235 233 235 237 233 225 221 224 227 229 227 226 228 231 233 235 236 235 233 232 233 234 237 239 242 245 247 248 247 247 247 248 249 250 253 255 253 248 245 242 240 239 238 237 237 239 240 241 239 237 236 233 228 224
208 209 210 211 211 211 212 212 212 213 214 213 213 214 216 217 219 221 224 226 228 229 230 230 230 230 232 233 232 231 231 230 227 226 229 229 225 223 225 228 230 229 228 229 230 232 234 236 235 233 232 232 233 235 239 243 248 250 249 247 246 247 248 249 249 250 253 253 249 246 244 244 243 242 240 239 239 239 239 238 237 235 231 226 222
218 220 223 224 223 220 217 213 211 211 211 211 211 211 212 214 216 218 221 224 225 226 226 227 228 228 230 232 231 228 226 226 224 223 223 225 227 228 227 227 228 228 228 228 230 231 233 236 236 235 234 233 233 235 238 243 250 255 255 250 247 246 246 246 246 246 248 250 249 245 244 246 247 246 243 240 238 237 237 237 237 236 233 229 226
221 223 226 228 226 221 216 213 212 213 213 213 212 211 212 213 214 216 219 221 222 223 223 225 226 227 228 230 229 227 226 227 227 226 224 225 228 230 230 228 227 227 228 229 230 231 233 236 237 238 237 236 235 237 240 243 250 257 259 252 246 244 245 247 247 246 246 248 248 245 243 244 246 247 245 241 239 238 238 238 237 236 235 233 229
227 227 227 225 220 213 210 210 212 214 215 214 213 213 213 214 214 216 218 219 221 222 222 223 225 226 226 226 227 226 227 228 229 229 228 228 230 232 233 233 232 231 231 232 231 231 232 235 237 239 240 240 241 242 244 244 248 254 256 251 246 244 245 247 247 248 247 247 248 247 244 242 242 244 244 243 239 236 236 237 238 238 236 233 229
229 228 224 218 213 209 209 210 211 212 212 212 212 212 213 214 214 215 217 218 220 221 222 224 226 226 224 221 219 219 222 224 227 229 230 231 232 234 235 237 238 237 236 236 234 233 234 234 236 239 241 242 244 247 247 246 247 253 257 256 253 251 250 250 249 250 249 249 249 249 248 244 241 241 243 244 241 237 234 234 235 235 235 232 229
225 222 217 212 209 209 210 210 210 210 208 207 207 208 209 210 211 213 215 216 218 220 221 223 224 223 220 216 211 211 215 219 222 226 229 232 234 236 237 238 239 239 238 236 235 235 236 237 237 239 240 241 242 244 244 244 247 254 260 260 259 258 258 257 255 253 252 251 250 249 250 249 246 243 242 243 242 239 236 235 234 233 234 233 230
217 212 208 206 207 207 206 206 206 205 203 203 203 204 205 206 207 209 211 212 214 216 218 220 221 220 218 214 209 210 214 217 220 224 228 230 233 235 237 238 239 239 238 237 234 233 235 239 240 241 243 243 243 242 242 242 245 252 258 262 263 263 262 262 261 259 257 255 252 250 248 248 247 245 243 242 241 239 237 235 234 233 233 231 228
204 204 203 202 201 200 199 198 198 198 199 199 200 201 203 204 206 207 209 210 213 215 218 220 221 221 220 217 215 214 216 219 221 224 227 230 232 233 234 235 237 238 238 238 234 232 235 239 240 241 243 245 246 246 247 247 248 251 255 259 262 264 265 266 267 266 264 261 258 255 251 248 246 244 242 240 240 239 238 236 235 234 232 229 225
195 197 197 196 195 194 192 192 192 193 195 197 198 199 201 201 202 204 206 207 210 213 215 216 218 219 220 222 223 224 224 227 229 230 231 232 234 234 234 233 233 235 236 235 233 232 234 239 242 243 244 246 247 249 251 253 253 253 254 255 257 260 263 266 268 268 266 265 263 260 257 252 248 245 243 241 240 239 239 238 237 235 233 230 226
188 189 189 190 189 189 188 188 188 188 189 190 191 192 192 192 192 192 192 192 194 196 199 201 205 208 211 215 220 224 227 232 237 240 241 240 239 238 237 235 234 234 235 233 230 229 231 235 239 243 245 247 248 248 249 251 252 252 252 251 251 251 252 256 260 264 266 266 264 262 260 258 254 250 245 242 240 239 239 239 238 236 233 230 227
179 180 180 180 180 179 178 178 177 177 177 177 176 176 176 176 177 177 178 179 181 184 189 194 197 200 203 206 208 212 217 223 229 235 240 243 243 241 239 237 235 235 235 234 232 231 232 234 236 240 244 248 249 250 250 250 250 250 249 247 245 244 244 245 250 257 262 265 265 262 260 260 258 255 250 245 241 239 239 239 238 237 234 231 227
168 168 168 168 167 166 165 164 164 163 163 163 162 161 162 163 164 166 169 172 174 179 186 193 197 202 207 207 207 209 212 217 223 228 232 236 239 239 238 237 236 235 235 235 235 236 237 239 240 242 245 247 250 252 254 254 253 252 250 247 244 243 241 241 243 248 255 261 263 263 261 259 258 256 254 251 247 243 240 238 238 238 237 234 230
155 155 155 156 156 156 157 158 159 158 159 160 160 159 160 162 163 164 164 165 166 167 171 176 180 187 196 203 208 212 214 216 220 224 227 229 231 232 233 235 237 237 238 238 236 237 240 243 245 247 248 250 252 253 254 256 256 257 256 254 249 245 241 240 240 243 248 253 257 260 261 260 257 255 254 253 251 247 243 239 237 237 237 237 235
152 150 149 149 149 149 151 153 154 155 157 159 160 161 162 163 165 166 168 170 172 173 175 177 177 178 181 184 187 194 204 213 219 223 226 229 232 233 232 232 233 236 240 241 241 241 241 243 246 249 250 252 254 255 255 255 255 255 256 257 255 250 245 241 239 240 242 246 251 256 259 258 257 256 255 253 252 250 247 243 240 239 238 238 238
Height
1414 1415 1416 1417 1417 1418 1419 1419 1419 1419 1419 1419 1419 1419 1419 1419 1420 1419 1418 1416 1415 1416 1417 1418 1420 1423 1425 1428 1430 1432 1435 1437 1439 1443 1447 1451 1455 1459 1462 1464 1467 1471 1475 1478 1480 1483 1486 1488 1490 1492 1494 1496 1498 1501 1504 1506 1508 1510 1513 1516 1518 1521 1523 1524 1525 1527 1528 1530 1533 1535 1537 1539 1540 1542 1544 1546 1547 1548 1550 1552 1554 1556 1557 1559 1561
1413 1413 1414 1415 1415 1416 1417 1417 1417 1418 1418 1418 1418 1417 1418 1418 1418 1419 1419 1418 1417 1416 1417 1419 1420 1422 1424 1427 1429 1432 1434 1436 1438 1441 1445 1450 1454 1458 1461 1464 1467 1470 1473 1476 1478 1481 1484 1486 1488 1490 1492 1494 1496 1499 1502 1504 1506 1508 1510 1512 1514 1516 1519 1520 1522 1523 1525 1527 1528 1530 1533 1535 1536 1538 1540 1542 1543 1544 1546 1548 1550 1552 1554 1555 1556
1410 1411 1412 1412 1413 1414 1414 1415 1415 1416 1416 1417 1417 1416 1416 1417 1417 1418 1419 1419 1418 1418 1418 1419 1421 1422 1424 1427 1429 1432 1434 1435 1437 1441 1445 1449 1453 1457 1459 1462 1465 1468 1471 1474 1476 1479 1481 1484 1486 1488 1490 1492 1494 1497 1499 1502 1504 1506 1507 1509 1511 1513 1515 1517 1518 1520 1521 1523 1524 1525 1527 1529 1531 1534 1536 1538 1539 1540 1542 1544 1546 1548 1550 1551 1551
1408 1409 1409 1410 1411 1411 1412 1413 1414 1414 1414 1415 1415 1416 1415 1415 1416 1417 1418 1419 1419 1420 1420 1420 1421 1423 1425 1427 1429 1431 1433 1435 1438 1441 1445 1448 1451 1454 1457 1460 1463 1466 1469 1472 1474 1476 1479 1481 1483 1485 1487 1489 1491 1494 1496 1499 1501 1503 1504 1506 1507 1509 1511 1513 1515 1516 1517 1519 1520 1521 1522 1525 1527 1530 1532 1533 1534 1536 1538 1541 1542 1544 1546 1547 1548
1406 1406 1407 1407 1408 1409 1410 1411 1411 1412 1413 1413 1413 1414 1414 1414 1415 1415 1416 1418 1419 1420 1421 1421 1422 1423 1425 1427 1429 1431 1433 1435 1438 1441 1444 1446 1449 1453 1456 1459 1462 1464 1467 1470 1472 1474 1476 1479 1481 1483 1484 1485 1488 1490 1493 1495 1497 1499 1501 1502 1505 1507 1508 1509 1511 1513 1514 1514 1516 1517 1518 1520 1522 1524 1526 1528 1529 1531 1534 1536 1538 1540 1542 1543 1544
1403 1404 1404 1405 1405 1406 1407 1408 1409 1410 1411 1411 1412 1412 1413 1413 1414 1414 1415 1416 1418 1419 1420 1421 1422 1424 1425 1427 1429 1431 1434 1436 1438 1441 1443 1446 1449 1452 1455 1457 1460 1462 1465 1467 1470 1472 1474 1476 1478 1480 1481 1482 1485 1487 1489 1492 1494 1495 1497 1499 1502 1504 1505 1506 1507 1509 1510 1510 1511 1513 1514 1516 1517 1519 1521 1523 1525 1526 1529 1531 1533 1534 1536 1538 1540
1401 1401 1402 1402 1403 1404 1405 1406 1407 1408 1409 1409 1410 1410 1411 1412 1412 1413 1414 1415 1416 1418 1419 1421 1422 1423 1425 1427 1429 1431 1433 1436 1438 1441 1443 1446 1448 1450 1453 1455 1458 1460 1463 1465 1467 1469 1471 1473 1475 1477 1478 1480 1482 1484 1486 1488 1490 1492 1494 1496 1499 1501 1502 1503 1504 1504 1505 1506 1507 1508 1510 1511 1512 1514 1517 1519 1521 1523 1525 1526 1526 1527 1530 1533 1536
1398 1399 1399 1400 1400 1401 1403 1404 1404 1406 1406 1407 1408 1408 1409 1410 1410 1411 1412 1413 1415 1416 1418 1420 1421 1422 1424 1426 1428 1430 1432 1434 1436 1439 1442 1444 1447 1449 1451 1453 1455 1458 1460 1462 1464 1466 1468 1470 1472 1474 1475 1477 1479 1481 1483 1485 1487 1489 1491 1493 1495 1496 1497 1499 1499 1500 1500 1501 1502 1504 1505 1506 1508 1509 1512 1514 1515 1516 1517 1519 1520 1522 1525 1527 1530
1396 1397 1397 1397 1398 1399 1401 1402 1402 1403 1404 1404 1405 1406 1407 1408 1409 1410 1411 1412 1413 1414 1416 1418 1419 1421 1423 1424 1426 1428 1430 1432 1434 1437 1440 1442 1444 1447 1449 1451 1453 1455 1457 1459 1461 1463 1465 1467 1469 1471 1473 1474 1476 1478 1480 1482 1483 1485 1487 1489 1490 1491 1492 1493 1494 1495 1496 1496 1497 1499 1500 1501 1503 1504 1505 1507 1508 1509 1511 1514 1516 1518 1521 1523 1525
1393 1394 1394 1395 1396 1397 1398 1399 1400 1401 1401 1402 1403 1404 1405 1405 1406 1408 1409 1410 1411 1412 1414 1415 1417 1419 1421 1422 1425 1426 1428 1431 1433 1435 1438 1440 1442 1444 1446 1448 1450 1452 1454 1456 1458 1460 1462 1464 1465 1467 1469 1471 1473 1475 1476 1478 1479 1481 1483 1485 1486 1487 1488 1489 1489 1490 1491 1491 1492 1494 1495 1496 1497 1499 1500 1502 1504 1506 1507 1509 1511 1513 1515 1518 1520
1391 1391 1391 1392 1394 1395 1396 1397 1397 1398 1399 1400 1401 1402 1403 1403 1404 1405 1406 1407 1409 1410 1411 1413 1414 1416 1418 1420 1422 1424 1426 1428 1430 1433 1435 1437 1439 1441 1443 1445 1447 1449 1451 1452 1454 1456 1458 1460 1462 1464 1466 1468 1469 1471 1473 1474 1475 1477 1479 1480 1481 1482 1483 1484 1485 1486 1487 1487 1488 1489 1489 1491 1493 1495 1497 1499 1501 1502 1503 1505 1506 1507 1509 1510 1512
1389 1389 1389 1390 1391 1392 1393 1394 1395 1395 1396 1397 1398 1399 1400 1401 1402 1403 1404 1405 1406 1407 1409 1410 1412 1414 1416 1417 1419 1421 1423 1426 1428 1430 1432 1434 1436 1438 1440 1442 1444 1446 1447 1449 1451 1453 1455 1457 1459 1461 1463 1464 1466 1467 1469 1470 1471 1473 1474 1475 1476 1478 1479 1480 1481 1482 1483 1483 1484 1484 1485 1487 1490 1491 1493 1495 1497 1498 1498 1500 1501 1502 1503 1504 1505
1386 1387 1387 1388 1388 1389 1390 1391 1392 1393 1393 1394 1395 1396 1397 1398 1399 1400 1402 1403 1403 1404 1406 1407 1409 1411 1413 1415 1417 1418 1421 1423 1425 1427 1429 1431 1433 1434 1436 1438 1440 1442 1444 1446 1448 1450 1452 1454 1456 1457 1459 1461 1462 1463 1464 1466 1467 1469 1470 1471 1472 1473 1474 1476 1477 1477 1478 1479 1479 1479 1481 1484 1485 1486 1489 1491 1492 1493 1494 1495 1496 1497 1498 1500 1501
1382 1383 1384 1385 1386 1387 1387 1388 1389 1390 1391 1392 1392 1393 1394 1395 1396 1398 1399 1400 1401 1402 1403 1405 1406 1408 1410 1412 1414 1416 1418 1420 1421 1423 1425 1427 1429 1431 1433 1435 1437 1438 1440 1442 1444 1446 1448 1450 1451 1453 1455 1456 1457 1459 1460 1461 1463 1464 1465 1466 1467 1469 1470 1472 1473 1474 1474 1475 1475 1476 1478 1481 1481 1483 1486 1487 1488 1489 1490 1491 1492 1493 1494 1497 1499
1379 1380 1381 1382 1383 1384 1384 1385 1386 1387 1388 1388 1389 1390 1390 1391 1393 1395 1396 1397 1398 1399 1401 1403 1404 1405 1407 1409 1410 1412 1414 1416 1418 1420 1422 1424 1426 1428 1429 1431 1433 1435 1437 1438 1440 1442 1444 1446 1447 1449 1450 1451 1453 1454 1456 1457 1458 1459 1460 1461 1463 1464 1466 1467 1469 1470 1471 1471 1472 1473 1475 1477 1478 1480 1482 1483 1484 1485 1486 1487 1489 1490 1492 1493 1495
1375 1376 1377 1379 1380 1381 1382 1382 1383 1384 1385 1385 1386 1387 1388 1388 1389 1391 1392 1394 1395 1396 1398 1400 1402 1403 1405 1406 1408 1409 1412 1414 1415 1417 1419 1420 1422 1424 1426 1427 1429 1431 1433 1434 1436 1438 1440 1441 1443 1444 1445 1447 1449 1450 1452 1453 1454 1455 1455 1457 1458 1459 1461 1463 1465 1467 1467 1468 1469 1470 1471 1473 1474 1476 1477 1479 1480 1481 1482 1484 1486 1487 1488 1489 1491
1370 1372 1373 1375 1376 1378 1379 1379 1380 1381 1381 1382 1383 1384 1385 1386 1386 1388 1389 1390 1391 1393 1394 1396 1398 1400 1402 1403 1405 1407 1409 1411 1412 1414 1415 1417 1419 1420 1422 1423 1425 1427 1429 1430 1432 1434 1436 1437 1438 1440 1441 1442 1444 1445 1447 1448 1449 1450 1451 1452 1454 1454 1456 1459 1461 1462 1463 1463 1464 1466 1467 1468 1470 1471 1472 1474 1475 1476 1477 1478 1479 1481 1483 1485 1486
1366 1367 1369 1371 1373 1374 1375 1376 1377 1377 1378 1379 1380 1382 1383 1383 1384 1385 1386 1387 1388 1390 1391 1393 1395 1397 1398 1400 1402 1404 1406 1408 1409 1411 1412 1414 1415 1417 1418 1420 1422 1423 1425 1427 1428 1430 1432 1433 1434 1436 1437 1438 1439 1441 1442 1443 1443 1444 1446 1447 1448 1449 1451 1454 1456 1457 1458 1458 1459 1460 1461 1463 1464 1465 1466 1468 1470 1470 1471 1472 1474 1476 1477 1478 1480
1360 1362 1365 1367 1369 1370 1372 1373 1373 1374 1375 1376 1378 1379 1380 1380 1381 1382 1383 1384 1386 1387 1388 1390 1391 1393 1395 1397 1398 1400 1402 1404 1406 1407 1409 1411 1412 1413 1415 1416 1418 1419 1421 1423 1425 1426 1428 1429 1430 1431 1432 1433 1434 1436 1438 1439 1438 1439 1440 1441 1442 1443 1447 1450 1451 1452 1453 1454 1454 1455 1456 1457 1459 1460 1461 1462 1463 1464 1466 1467 1469 1470 1470 1472 1474
1355 1358 1361 1363 1364 1366 1368 1369 1369 1370 1371 1373 1375 1376 1377 1377 1378 1379 1380 1382 1383 1385 1386 1387 1388 1390 1391 1393 1395 1396 1398 1400 1402 1403 1405 1407 1408 1409 1411 1412 1414 1415 1416 1418 1420 1421 1423 1424 1425 1426 1427 1428 1430 1431 1432 1433 1433 1434 1436 1437 1437 1440 1443 1446 1447 1448 1449 1450 1451 1452 1452 1453 1454 1455 1456 1456 1457 1458 1460 1462 1463 1464 1466 1468 1468
1351 1354 1357 1358 1360 1362 1364 1365 1366 1367 1368 1370 1371 1372 1373 1374 1375 1376 1377 1379 1380 1382 1383 1384 1386 1387 1388 1390 1391 1393 1394 1396 1398 1400 1401 1403 1404 1405 1407 1408 1410 1411 1413 1414 1415 1417 1419 1421 1422 1423 1424 1425 1425 1426 1427 1428 1429 1430 1432 1433 1435 1438 1440 1442 1443 1445 1446 1446 1447 1448 1449 1449 1450 1451 1451 1452 1452 1454 1455 1457 1458 1460 1462 1465 1464
1346 1348 1351 1353 1355 1357 1360 1361 1362 1363 1365 1366 1368 1369 1370 1371 1372 1373 1374 1375 1377 1379 1380 1382 1383 1384 1385 1387 1388 1389 1391 1393 1395 1396 1398 1399 1401 1402 1404 1405 1407 1408 1410 1411 1412 1414 1416 1417 1419 1421 1421 1421 1422 1422 1423 1424 1426 1427 1429 1431 1434 1436 1437 1438 1440 1441 1441 1442 1443 1444 1444 1445 1446 1447 1447 1448 1449 1451 1452 1454 1455 1457 1459 1462 1462
1340 1342 1345 1347 1350 1353 1355 1357 1358 1360 1361 1363 1364 1365 1367 1368 1369 1370 1371 1373 1374 1376 1377 1379 1380 1381 1382 1384 1385 1386 1388 1390 1391 1393 1395 1396 1398 1399 1401 1402 1404 1406 1407 1408 1410 1411 1413 1414 1416 1417 1417 1418 1419 1420 1421 1422 1423 1425 1427 1429 1432 1433 1434 1435 1435 1436 1437 1438 1439 1440 1441 1442 1443 1444 1445 1446 1448 1449 1451 1453 1454 1456 1457 1459 1459
1334 1336 1340 1343 1346 1348 1351 1353 1354 1356 1358 1360 1361 1362 1363 1365 1366 1367 1369 1370 1372 1373 1374 1376 1377 1378 1379 1381 1382 1383 1385 1386 1388 1390 1391 1393 1395 1396 1398 1399 1401 1403 1404 1406 1407 1408 1410 1411 1413 1414 1414 1415 1416 1417 1419 1420 1421 1423 1425 1427 1429 1430 1430 1431 1432 1433 1434 1434 1435 1437 1438 1439 1441 1442 1443 1445 1446 1448 1450 1452 1453 1454 1455 1456 1456
1328 1331 1335 1339 1341 1344 1347 1348 1351 1353 1355 1356 1358 1359 1361 1362 1363 1364 1366 1367 1369 1370 1372 1373 1375 1376 1377 1378 1379 1380 1382 1383 1385 1387 1389 1390 1392 1394 1395 1397 1399 1400 1402 1403 1404 1405 1407 1409 1410 1411 1412 1413 1414 1415 1416 1418 1419 1421 1423 1425 1426 1427 1427 1428 1429 1430 1431 1432 1433 1434 1435 1437 1438 1439 1440 1442 1443 1445 1447 1449 1450 1451 1452 1452 1454
1324 1327 1331 1334 1337 1340 1342 1344 1347 1349 1351 1353 1355 1357 1358 1359 1360 1361 1363 1364 1366 1367 1369 1370 1372 1373 1374 1376 1377 1378 1379 1381 1382 1384 1386 1388 1389 1391 1393 1394 1396 1397 1399 1400 1401 1403 1405 1406 1407 1408 1409 1411 1411 1412 1414 1416 1417 1419 1420 1421 1422 1423 1424 1425 1426 1427 1428 1429 1430 1432 1433 1434 1435 1436 1437 1439 1441 1442 1444 1446 1447 1448 1449 1450 1452
1320 1323 1326 1330 1333 1335 1337 1339 1342 1345 1347 1350 1352 1354 1356 1357 1358 1359 1360 1362 1363 1364 1366 1367 1369 1370 1371 1373 1374 1375 1376 1377 1379 1380 1383 1385 1386 1388 1389 1391 1392 1394 1395 1397 1398 1400 1402 1403 1404 1406 1407 1408 1409 1410 1411 1413 1415 1416 1417 1419 1420 1420 1421 1422 1423 1424 1425 1427 1428 1429 1430 1431 1432 1433 1435 1436 1438 1439 1441 1443 1444 1446 1447 1448 1449
1317 1320 1323 1326 1328 1330 1333 1336 1338 1341 1344 1346 1349 1351 1353 1355 1356 1358 1359 1360 1361 1363 1364 1366 1367 1368 1369 1371 1372 1372 1373 1374 1375 1377 1379 1381 1383 1385 1386 1388 1389 1391 1392 1393 1395 1397 1398 1400 1401 1403 1404 1406 1406 1408 1409 1411 1413 1414 1416 1417 1417 1418 1419 1420 1421 1422 1423 1424 1426 1426 1426 1427 1429 1430 1432 1434 1435 1436 1437 1439 1441 1443 1445 1446 1446
1313 1316 1319 1322 1324 1327 1329 1332 1335 1338 1341 1344 1346 1349 1351 1353 1355 1356 1358 1359 1361 1362 1364 1365 1366 1367 1368 1369 1370 1371 1371 1372 1373 1375 1376 1378 1380 1382 1383 1385 1386 1387 1388 1390 1392 1393 1395 1396 1398 1400 1402 1403 1404 1405 1407 1409 1410 1412 1413 1414 1415 1416 1417 1418 1418 1419 1420 1421 1421 1422 1422 1423 1424 1426 1428 1430 1431 1432 1434 1436 1438 1440 1442 1443 1444
1309 1311 1314 1317 1320 1323 1325 1329 1332 1335 1338 1341 1344 1346 1348 1351 1353 1354 1356 1357 1359 1360 1362 1363 1364 1365 1366 1367 1368 1369 1370 1370 1371 1373 1374 1376 1377 1379 1380 1381 1382 1384 1385 1387 1388 1390 1391 1393 1395 1397 1399 1400 1401 1403 1405 1406 1408 1409 1410 1411 1412 1413 1415 1416 1416 1416 1417 1417 1416 1417 1417 1418 1419 1420 1423 1426 1428 1429 1431 1433 1434 1436 1438 1440 1442
1304 1307 1310 1313 1316 1319 1322 1326 1330 1333 1336 1339 1341 1343 1345 1348 1349 1351 1353 1354 1356 1357 1359 1360 1361 1362 1363 1365 1365 1366 1367 1367 1368 1370 1371 1372 1374 1375 1376 1377 1379 1381 1382 1384 1385 1386 1388 1390 1391 1393 1395 1397 1398 1400 1402 1404 1405 1407 1408 1409 1410 1411 1413 1413 1413 1413 1412 1412 1412 1412 1412 1413 1414 1415 1418 1421 1423 1425 1427 1429 1430 1432 1435 1437 1439
1300 1303 1306 1310 1313 1316 1320 1324 1327 1331 1333 1336 1338 1341 1342 1344 1346 1348 1349 1351 1352 1354 1355 1356 1358 1359 1360 1362 1363 1363 1364 1364 1365 1366 1367 1369 1370 1371 1373 1374 1376 1378 1379 1381 1382 1383 1384 1386 1388 1389 1392 1394 1396 1398 1400 1401 1403 1404 1406 1407 1408 1409 1409 1409 1409 1409 1409 1408 1408 1408 1408 1409 1410 1412 1415 1417 1419 1421 1424 1425 1427 1429 1431 1434 1436
1298 1301 1304 1307 1310 1313 1317 1321 1325 1328 1331 1333 1335 1337 1339 1341 1343 1344 1346 1347 1349 1351 1352 1353 1354 1355 1357 1358 1359 1360 1361 1361 1362 1363 1364 1365 1366 1368 1370 1371 1373 1375 1376 1377 1378 1379 1381 1383 1384 1386 1389 1392 1394 1396 1397 1399 1400 1402 1403 1404 1404 1405 1405 1406 1406 1406 1405 1405 1405 1406 1406 1407 1408 1410 1412 1413 1415 1417 1419 1422 1424 1426 1428 1431 1434
1297 1300 1302 1305 1308 1311 1315 1319 1323 1326 1328 1331 1333 1335 1337 1338 1340 1341 1343 1344 1346 1347 1349 1350 1351 1352 1354 1355 1356 1357 1358 1358 1359 1359 1361 1362 1363 1365 1367 1368 1370 1371 1372 1373 1374 1376 1377 1379 1381 1383 1386 1389 1391 1393 1395 1396 1397 1398 1399 1399 1400 1401 1402 1403 1403 1402 1402 1402 1403 1403 1404 1405 1406 1407 1408 1409 1411 1413 1416 1418 1421 1423 1425 1428 1430
1296 1299 1302 1304 1308 1311 1314 1317 1321 1323 1326 1328 1330 1332 1334 1335 1337 1338 1340 1341 1343 1344 1346 1347 1349 1350 1351 1352 1353 1354 1355 1355 1356 1357 1358 1359 1360 1362 1363 1365 1366 1367 1368 1369 1371 1372 1373 1375 1378 1381 1383 1386 1388 1390 1392 1393 1394 1395 1395 1395 1396 1397 1399 1399 1399 1398 1399 1399 1400 1401 1402 1403 1404 1404 1405 1405 1407 1409 1412 1414 1416 1419 1422 1425 1427
1296 1299 1301 1304 1307 1310 1313 1316 1319 1321 1323 1325 1327 1329 1331 1332 1334 1336 1337 1339 1340 1342 1343 1345 1346 1348 1349 1350 1351 1351 1352 1353 1353 1354 1355 1356 1357 1359 1360 1360 1361 1363 1364 1366 1367 1368 1370 1372 1375 1378 1381 1383 1385 1387 1389 1390 1391 1391 1391 1391 1392 1394 1395 1395 1395 1395 1396 1396 1397 1398 1399 1400 1401 1402 1402 1403 1404 1406 1409 1411 1413 1416 1419 1422 1424
1296 1298 1301 1304 1306 1309 1312 1314 1316 1318 1320 1322 1324 1326 1327 1329 1331 1333 1334 1336 1337 1339 1340 1342 1343 1344 1345 1346 1347 1349 1350 1350 1351 1352 1353 1354 1355 1356 1357 1357 1359 1360 1362 1363 1364 1366 1367 1369 1372 1375 1378 1380 1382 1384 1386 1386 1387 1387 1388 1388 1389 1390 1391 1392 1392 1393 1393 1394 1395 1396 1397 1398 1399 1399 1400 1400 1402 1404 1407 1409 1411 1413 1416 1419 1422
1296 1298 1300 1302 1304 1307 1309 1311 1313 1316 1318 1319 1321 1323 1324 1326 1327 1329 1331 1332 1334 1336 1337 1339 1340 1341 1342 1343 1345 1346 1347 1348 1349 1349 1350 1351 1352 1353 1354 1355 1356 1357 1359 1360 1362 1363 1365 1367 1370 1372 1374 1376 1379 1381 1382 1383 1384 1384 1385 1385 1386 1387 1388 1389 1389 1390 1390 1391 1392 1393 1394 1395 1396 1397 1398 1398 1400 1402 1404 1406 1408 1410 1413 1415 1417
1296 1297 1299 1301 1303 1305 1307 1309 1311 1313 1314 1316 1318 1319 1321 1322 1324 1325 1327 1329 1331 1333 1334 1336 1337 1338 1339 1341 1342 1343 1344 1345 1345 1346 1347 1349 1350 1351 1352 1353 1354 1355 1356 1358 1359 1361 1363 1364 1367 1369 1371 1373 1376 1378 1379 1380 1381 1382 1382 1383 1383 1384 1384 1385 1386 1386 1387 1387 1388 1390 1391 1391 1392 1394 1396 1396 1397 1399 1401 1403 1405 1407 1409 1411 1413
1294 1296 1297 1299 1300 1302 1304 1306 1308 1310 1312 1314 1316 1317 1319 1320 1321 1323 1325 1326 1328 1330 1331 1332 1334 1335 1336 1337 1339 1340 1341 1341 1342 1343 1345 1346 1347 1349 1350 1351 1351 1352 1353 1355 1357 1359 1360 1362 1363 1365 1368 1370 1373 1375 1376 1377 1378 1379 1380 1380 1380 1380 1381 1382 1383 1384 1384 1385 1385 1387 1388 1388 1389 1391 1393 1394 1395 1397 1399 1401 1403 1405 1407 1409 1412
1292 1294 1295 1296 1298 1300 1302 1303 1305 1308 1310 1312 1314 1315 1317 1318 1320 1321 1322 1324 1325 1327 1328 1330 1331 1332 1333 1334 1336 1337 1338 1339 1340 1341 1342 1343 1345 1346 1347 1348 1348 1349 1350 1352 1354 1356 1357 1358 1360 1362 1364 1367 1369 1371 1372 1374 1375 1376 1377 1376 1376 1377 1378 1378 1379 1381 1382 1382 1382 1383 1385 1386 1387 1388 1390 1391 1393 1395 1397 1399 1400 1402 1405 1407 1410
1290 1291 1292 1294 1295 1297 1299 1301 1303 1305 1308 1310 1312 1314 1315 1317 1318 1319 1320 1322 1323 1325 1326 1327 1329 1330 1331 1332 1333 1334 1335 1336 1337 1339 1340 1341 1342 1343 1344 1345 1346 1347 1348 1350 1351 1353 1354 1355 1357 1358 1360 1362 1365 1367 1368 1370 1371 1373 1374 1374 1374 1374 1375 1375 1376 1378 1379 1379 1380 1381 1382 1384 1385 1386 1387 1389 1391 1392 1394 1395 1397 1400 1402 1404 1406
1286 1288 1290 1291 1293 1294 1297 1299 1301 1303 1305 1307 1309 1312 1313 1315 1316 1317 1318 1320 1321 1322 1323 1325 1326 1327 1328 1329 1330 1331 1332 1333 1334 1336 1337 1338 1340 1340 1342 1343 1343 1344 1345 1347 1348 1350 1351 1352 1353 1355 1356 1358 1360 1362 1364 1366 1367 1369 1370 1371 1371 1372 1372 1373 1374 1375 1375 1376 1377 1379 1380 1381 1382 1384 1385 1387 1388 1390 1391 1393 1395 1396 1398 1401 1403
1284 1286 1288 1289 1291 1293 1295 1297 1299 1301 1303 1305 1307 1309 1311 1312 1314 1315 1316 1317 1318 1320 1321 1322 1324 1325 1326 1327 1328 1329 1330 1331 1332 1333 1334 1336 1337 1338 1339 1340 1341 1342 1343 1344 1345 1346 1347 1348 1350 1351 1352 1354 1356 1358 1360 1361 1363 1364 1366 1367 1368 1369 1370 1371 1372 1372 1372 1373 1375 1376 1377 1379 1380 1381 1382 1384 1385 1387 1388 1390 1392 1393 1395 1398 1400
1282 1284 1286 1288 1289 1291 1293 1295 1297 1299 1301 1303 1305 1306 1308 1310 1312 1313 1315 1316 1317 1318 1319 1320 1322 1323 1324 1325 1326 1327 1328 1328 1329 1330 1332 1334 1335 1336 1337 1338 1339 1339 1340 1341 1342 1343 1344 1345 1346 1348 1349 1350 1352 1354 1355 1357 1358 1360 1361 1362 1364 1365 1366 1368 1369 1370 1370 1371 1372 1373 1375 1376 1377 1378 1379 1381 1382 1384 1385 1387 1389 1391 1392 1394 1396
1280 1283 1285 1286 1288 1289 1291 1293 1295 1297 1299 1301 1303 1305 1307 1309 1310 1312 1314 1315 1316 1317 1318 1319 1320 1321 1322 1324 1325 1326 1327 1327 1328 1329 1331 1332 1333 1334 1335 1336 1336 1337 1338 1338 1339 1339 1340 1342 1343 1344 1346 1347 1348 1350 1351 1352 1354 1355 1356 1358 1359 1361 1363 1365 1367 1367 1367 1368 1369 1371 1372 1373 1374 1375 1377 1378 1380 1381 1383 1385 1386 1388 1390 1392 1393
1279 1282 1283 1285 1286 1288 1290 1292 1294 1296 1298 1300 1302 1303 1305 1307 1309 1311 1312 1314 1315 1316 1317 1317 1319 1320 1321 1322 1324 1325 1326 1327 1328 1329 1330 1331 1332 1332 1333 1333 1334 1335 1335 1335 1336 1336 1337 1339 1340 1342 1343 1344 1345 1346 1347 1348 1349 1351 1352 1353 1355 1356 1359 1361 1363 1364 1364 1366 1367 1368 1369 1370 1371 1372 1374 1375 1377 1378 1380 1382 1383 1385 1387 1389 1392
1278 1279 1281 1283 1285 1287 1288 1290 1292 1294 1296 1298 1300 1302 1304 1306 1308 1309 1311 1312 1314 1315 1316 1317 1318 1319 1320 1321 1322 1324 1325 1326 1327 1328 1329 1330 1331 1331 1331 1331 1332 1332 1332 1332 1333 1333 1334 1336 1338 1339 1340 1342 1343 1344 1344 1345 1346 1347 1348 1349 1351 1352 1354 1357 1359 1360 1362 1363 1364 1365 1366 1367 1368 1369 1370 1371 1373 1375 1376 1378 1380 1381 1384 1387 1389
1276 1278 1279 1281 1282 1284 1286 1288 1290 1292 1294 1296 1299 1301 1303 1305 1306 1308 1310 1311 1313 1314 1316 1317 1318 1319 1320 1321 1322 1323 1324 1325 1326 1327 1328 1329 1330 1330 1330 1330 1330 1330 1329 1329 1330 1331 1332 1333 1335 1336 1338 1339 1340 1341 1342 1342 1343 1344 1344 1346 1348 1349 1351 1353 1354 1356 1358 1360 1361 1362 1363 1364 1366 1367 1368 1369 1370 1371 1373 1375 1376 1378 1380 1383 1386
1277 1279 1280 1281 1282 1283 1285 1286 1288 1290 1293 1295 1297 1299 1301 1302 1304 1306 1308 1310 1311 1313 1314 1316 1317 1318 1320 1321 1322 1323 1324 1324 1325 1326 1326 1327 1327 1328 1328 1328 1328 1327 1327 1327 1327 1328 1330 1331 1332 1333 1335 1336 1337 1339 1340 1340 1341 1341 1342 1343 1344 1346 1348 1349 1351 1353 1354 1356 1358 1359 1360 1361 1363 1364 1365 1366 1367 1369 1370 1372 1373 1375 1377 1379 1382
1279 1281 1282 1283 1284 1285 1286 1287 1289 1290 1292 1294 1296 1297 1299 1301 1303 1305 1306 1308 1310 1311 1313 1314 1315 1316 1318 1319 1320 1321 1322 1323 1324 1324 1325 1325 1325 1325 1325 1325 1325 1325 1325 1325 1326 1327 1328 1329 1330 1331 1332 1333 1335 1336 1337 1338 1339 1339 1339 1340 1341 1343 1344 1346 1348 1349 1351 1353 1354 1356 1357 1359 1360 1361 1362 1364 1365 1366 1368 1369 1371 1372 1374 1375 1378